Fullerton, CA

5:19 PM PDT on May 20, 2018 (GMT -0700)
Fullerton Municipal

Weather History for KFUL - September, 2012

Change the Weather History Date:

Thursday, September 6, 2012

  Actual Average Record
Temperature  
Mean Temperature 82 °F 75 °F  
Max Temperature 91 °F 86 °F 101 °F (2013)
Min Temperature 72 °F 65 °F 56 °F (2005)
Degree Days  
Heating Degree Days 0 0  
Month to date heating degree days 0 0  
Since 1 July heating degree days 16 0  
Cooling Degree Days 17 10  
Month to date cooling degree days 97 60  
Year to date cooling degree days 1364 923  
Growing Degree Days 31 (Base 50)    
Moisture  
Dew Point 59 °F    
Average Humidity 57    
Maximum Humidity 84    
Minimum Humidity 29    
Precipitation  
Precipitation 0.00 in 0.00 in 0.57 in (1978)
Month to date precipitation T 0.01  
Year to date precipitation 3.54 9.75  
Since 1 July precipitation 0.01  
Snow  
Snow 0.00 in - - ()
Month to date snowfall 0.0  
Year to date snowfall 0.0  
Snow Depth 0.00 in    
Sea Level Pressure  
Sea Level Pressure 29.93 in    
Wind  
Wind Speed 4 mph (SW)    
Max Wind Speed 12 mph    
Max Gust Speed 17 mph    
Visibility 10 miles    
Events      
T = Trace of Precipitation, MM = Missing Value Source: NWS Daily Summary

Daily Weather History Graph

Daily Weather History Graph

Search for Another Location

Airport or City:

Astronomy

Sep. 06, 2012 Rise Set
Actual Time 6:29 AM PDT 7:10 PM PDT
Civil Twilight 6:04 AM PDT 7:35 PM PDT
Nautical Twilight 5:34 AM PDT 8:04 PM PDT
Astronomical Twilight 5:03 AM PDT 8:35 PM PDT
Moon 10:43 PM PDT (9/6) 12:13 PM PDT (9/6)
Length of Visible Light 13h 31m
Length of Day
12h 40m
Waning Gibbous, 66% of the Moon is Illuminated
Sep 6
Waning Gibbous
Sep 8
Last Quarter
Sep 15
New
Sep 22
First Quarter
Sep 29
Full

Hourly Weather History & Observations

Time (PDT) Temp. Heat Index Dew Point Humidity Pressure Visibility Wind Dir Wind Speed Gust Speed Precip Events Conditions
12:53 AM 73.9 °F - 63.0 °F 68% 29.93 in 10.0 mi Calm Calm - N/A   Clear
1:53 AM 73.9 °F - 63.0 °F 68% 29.92 in 10.0 mi ESE 3.5 mph - N/A   Clear
2:53 AM 73.0 °F - 62.1 °F 68% 29.91 in 10.0 mi Calm Calm - N/A   Clear
3:53 AM 72.0 °F - 63.0 °F 73% 29.92 in 10.0 mi SE 3.5 mph - N/A   Clear
4:53 AM 72.0 °F - 63.0 °F 73% 29.91 in 10.0 mi Calm Calm - N/A   Clear
5:53 AM 72.0 °F - 63.0 °F 73% 29.92 in 10.0 mi Calm Calm - N/A   Clear
6:53 AM 72.0 °F - 66.0 °F 81% 29.94 in 9.0 mi Calm Calm - N/A   Clear
7:53 AM 73.9 °F - 64.0 °F 71% 29.96 in 10.0 mi South 3.5 mph - N/A   Clear
8:53 AM 77.0 °F - 59.0 °F 54% 29.97 in 10.0 mi Calm Calm - N/A   Clear
9:53 AM 81.0 °F 81.0 °F 57.0 °F 44% 29.98 in 10.0 mi Calm Calm - N/A   Clear
10:53 AM - - - N/A% 29.97 in - North - - N/A   Unknown
12:53 PM 90.0 °F 87.5 °F 53.1 °F 28% 29.94 in 10.0 mi SSW 8.1 mph - N/A   Clear
1:53 PM 88.0 °F 85.9 °F 54.0 °F 31% 29.93 in 10.0 mi South 6.9 mph - N/A   Clear
2:53 PM 87.1 °F 86.5 °F 59.0 °F 39% 29.91 in 10.0 mi SSW 10.4 mph - N/A   Clear
3:53 PM 87.1 °F 86.5 °F 59.0 °F 39% 29.90 in 10.0 mi SW 9.2 mph - N/A   Clear
4:53 PM 90.0 °F 88.8 °F 57.9 °F 34% 29.89 in 10.0 mi West 6.9 mph - N/A   Clear
5:53 PM 86.0 °F 84.0 °F 53.1 °F 32% 29.89 in 10.0 mi West 6.9 mph - N/A   Clear
6:53 PM 82.0 °F 81.3 °F 54.0 °F 38% 29.89 in 10.0 mi WNW 5.8 mph - N/A   Clear
7:53 PM 80.1 °F 80.0 °F 54.0 °F 40% 29.91 in 10.0 mi Calm Calm - N/A   Clear
8:53 PM 79.0 °F - 59.0 °F 50% 29.93 in 10.0 mi Calm Calm - N/A   Clear
9:53 PM 78.1 °F - 59.0 °F 52% 29.95 in 10.0 mi Variable 3.5 mph - N/A   Clear
10:53 PM 77.0 °F - 61.0 °F 58% 29.96 in 10.0 mi WNW 3.5 mph - N/A   Clear
11:53 PM 75.9 °F - 60.1 °F 58% 29.96 in 10.0 mi Calm Calm - N/A   Clear